Regional Weather Roundup
Issued by NWS

Home | Current Version | Previous Version | Text Only | Print | Product List | Glossary On
Versions: 1 2 3 4 5 6 7 8 9 10 11 12 13 14 15 16 17 18 19 20 21 22 23 24 25 26 27 28 29 30 31 32 33 34 35 36 37 38 39 40 41 42 43 44 45 46 47 48 49 50
000
ASUS43 KTOP 010608
RWRKS

WEATHER ROUNDUP FOR KANSAS
NATIONAL WEATHER SERVICE GOODLAND KS
1200 AM CST SUN FEB 01 2015

NOTE:  "FAIR" INDICATES FEW OR NO CLOUDS BELOW 12,000 FEET WITH NO
SIGNIFICANT WEATHER AND/OR OBSTRUCTIONS TO VISIBILITY.

KSZ001>006-013>018-027>032-041>047-010700-
NORTHWEST KANSAS

CITY           SKY/WX    TMP DP  RH WIND       PRES   REMARKS
GOODLAND       CLOUDY    27  25  92 N26       29.87R WCI  12
6HR MIN TEMP:  27; 6HR MAX TEMP:  33; 6HR PCP:  0.03;

HAYS           CLOUDY    34  25  69 N15       29.79R WCI  24
HILL CITY      LGT SNOW  32  30  92 N18G28    29.84R FOG     WCI  20
6HR MIN TEMP:  33; 6HR MAX TEMP:  39; 6HR PCP:  0.09;

RUSSELL        LGT RAIN  40  39  97 NW8       29.74S FOG
6HR MIN TEMP:  39; 6HR MAX TEMP:  40; 6HR PCP:  0.20;

$$

KSZ061>065-074>080-084>089-010700-
SOUTHWEST KANSAS

CITY           SKY/WX    TMP DP  RH WIND       PRES   REMARKS
DODGE CITY     LGT RAIN  36  33  89 NW20G26   29.80R WCI  25
6HR MIN TEMP:  36; 6HR MAX TEMP:  41; 6HR PCP:  0.03;

ELKHART          N/A     37  34  89 NW5         N/A
GARDEN CITY    CLOUDY    34  33  96 NW15      29.82R WCI  24
6HR MIN TEMP:  32; 6HR MAX TEMP:  40; 6HR PCP:  0.10;

LIBERAL        CLOUDY    39  34  81 NW14      29.85R WCI  31
PRATT          DRIZZLE   39  39 100 SW10      29.77S WCI  32
$$

KSZ066>073-081>083-090>101-010700-
SOUTHEAST KANSAS

CITY           SKY/WX    TMP DP  RH WIND       PRES   REMARKS
CHANUTE        LGT RAIN  40  39  97 S10       29.85F FOG     WCI  33
6HR MIN TEMP:  38; 6HR MAX TEMP:  40; 6HR PCP:  0.23;

COFFEYVILLE    RAIN      41  39  93 S14       29.87S FOG
6HR MIN TEMP:  39; 6HR MAX TEMP:  41;

HUTCHINSON     CLOUDY    41  39  93 S9        29.76F FOG
6HR MIN TEMP:  40; 6HR MAX TEMP:  41; 6HR PCP:  0.15;

MEDICINE LODGE   N/A     41  40  96 S7        29.79F
NEWTON         CLOUDY    39  34  81 S12       29.78F WCI  32
PARSONS        LGT RAIN  41  40  96 S12       29.86F FOG
6HR MIN TEMP:  39; 6HR MAX TEMP:  41; 6HR PCP: TRACE;

WICHITA INTL   LGT RAIN  41  41 100 S13       29.79F
6HR MIN TEMP:  33; 6HR MAX TEMP:  41; 6HR PCP:  0.27;

WICHITA JABRA  RAIN      40  50 100 S13       29.79F WCI  32
6HR MIN TEMP:  38; 6HR MAX TEMP:  40; 6HR PCP:  0.27;

WICHITA MCCONL LGT RAIN  39  39 100 S13       29.80F WCI  32
WINFIELD       CLOUDY    40  30  67 S12       29.83F WCI  33
6HR MIN TEMP:  39; 6HR MAX TEMP:  40; 6HR PCP:  0.15;

$$

KSZ007>012-019>026-033>040-048>060-102>105-010700-
NORTHEAST KANSAS

CITY           SKY/WX    TMP DP  RH WIND       PRES   REMARKS
CONCORDIA      LGT RAIN  34  34 100 N3        29.77S FOG
6HR MIN TEMP:  34; 6HR MAX TEMP:  36; 6HR PCP:  0.27;

EMPORIA        LGT RAIN  38  38 100 S13       29.80F WCI  30
6HR MIN TEMP:  36; 6HR MAX TEMP:  38; 6HR PCP:  0.22;

LAWRENCE       LGT RAIN  33  32  96 E7        29.84F FOG
6HR MIN TEMP:  32; 6HR MAX TEMP:  36; 6HR PCP:  0.37;

MANHATTAN      LGT RAIN  34  34 100 N3        29.79F FOG
6HR MIN TEMP:  34; 6HR MAX TEMP:  38; 6HR PCP:  0.26;

MARYSVILLE     LGT SNOW  32  32 100 SE3       29.80F
OLATHE IND     LGT RAIN  34  33  96 SE8       29.85F FOG
6HR MIN TEMP:  34; 6HR MAX TEMP:  36; 6HR PCP:  0.27;

OLATHE EXE     LGT SNOW  33  33 100 SE7       29.84F FOG
6HR MIN TEMP:  33; 6HR MAX TEMP:  36; 6HR PCP:  0.24;

SALINA         LGT RAIN  40  38  93 S9        29.77F
6HR MIN TEMP:  40; 6HR MAX TEMP:  41; 6HR PCP:  0.18;

TOPEKA BILLARD LGT SNOW  33  32  96 E6        29.83F FOG
6HR MIN TEMP:  33; 6HR MAX TEMP:  37; 6HR PCP:  0.33;

TOPEKA FORBES  LGT RAIN  35  33  92 SE6       29.81F FOG
6HR MIN TEMP:  34; 6HR MAX TEMP:  38; 6HR PCP:  0.32;

$$


USA.gov is the U.S. government's official web portal to all federal, state and local government web resources and services.